Location: Roanoke
(37.2710°N, 79.9420°W)
Time: 09:33:29
(UTC-04:00)

Daily predictions for brighter satellites

Satellite Brightness Start Highest point End
(mag) Time Altitude Azimuth Time Altitude Azimuth Time Altitude Azimuth
Cosmos 1354 Rocket 4.0 20:30:07 10° NNW 20:35:25 76° ENE 20:40:37 10° SSE
Resurs 01 Rocket 1.7 20:31:06 10° SSE 20:35:29 64° ENE 20:39:55 10° N
GRACE-1 3.9 20:35:52 10° N 20:38:35 79° W 20:41:18 10° S
GRACE-2 3.9 20:36:12 10° N 20:38:57 80° W 20:41:39 10° S
Cosmos 1862 4.0 20:37:18 10° N 20:41:04 37° E 20:44:49 10° SSE
Cosmos 2263 Rocket 2.4 20:37:52 10° NNW 20:43:20 53° ENE 20:48:46 10° SE
Envisat 3.9 20:40:52 10° SE 20:45:19 32° ENE 20:49:47 10° N
Meteor 1-29 4.0 20:48:18 10° NE 20:51:16 26° E 20:54:12 10° SSE
OAO 3 Rocket 3.5 20:47:59 10° W 20:52:44 56° SSW 20:57:01 13° ESE
Helios 1A 3.6 20:49:14 10° SE 20:53:11 40° ENE 20:57:10 10° N
Cosmos 2322 Rocket 3.1 20:49:13 10° SW 20:54:41 53° WNW 21:00:11 10° NNE
SEDSat Delta rocket 3.9 20:50:33 10° WSW 20:55:09 44° S 20:59:41 13° ESE
ORS 1 (USA 231) 4.4 20:52:22 10° WNW 20:55:27 86° SSW 20:57:52 15° ESE
Cosmos 1867 4.2 20:51:00 10° NNW 20:56:09 41° NE 21:00:33 14° ESE
Cosmos 1733 Rocket 3.1 20:52:14 10° N 20:56:40 62° E 21:01:04 10° SSE
Meteor 2-20 Rocket 4.5 20:50:36 10° N 20:56:45 88° E 21:02:54 10° S
Cosmos 2026 Rocket 4.0 20:52:04 10° N 20:58:18 85° E 21:04:24 10° S
Sakura Rocket 4.1 20:58:27 10° SW 21:01:18 21° S 21:03:16 15° SE
Cosmos 2360 Rocket 2.2 20:56:04 10° S 21:01:38 66° ESE 21:07:15 10° NNE
Cosmos 1825 2.4 20:57:55 10° N 21:01:43 75° W 21:05:31 10° S
ALOS 4.0 20:57:36 10° SSW 21:01:47 33° W 21:06:00 10° NNW
Cosmos 1408 3.0 21:00:10 10° NNW 21:03:49 65° W 21:07:24 10° S
H-2A R/B 4.1 21:01:10 10° S 21:04:51 41° W 21:08:31 10° NNW
ERS-1 Rocket 4.3 21:02:00 14° ESE 21:04:58 23° ENE 21:08:51 10° NNE
Cosmos 1939 Rocket 3.6 21:02:08 14° SE 21:05:06 34° ENE 21:08:44 10° N
Cosmos 1862 Rocket 3.5 21:01:00 10° S 21:05:27 83° E 21:09:58 10° N
COSMOS 2428 3.4 21:02:36 10° SSE 21:07:30 31° ESE 21:12:27 10° NE
Atlas Centaur 2 3.0 21:04:25 10° WSW 21:10:23 48° S 21:16:08 16° ESE
ATLAS 5 CENTAUR R/B 2.5 21:06:31 10° NNW 21:12:36 69° ENE 21:17:48 17° SE
NOSS 3-1 (C) 4.2 21:08:18 10° SSE 21:12:50 25° ESE 21:17:40 10° ENE
USA 229 DEB 3.6 21:12:33 10° SSW 21:19:20 77° ESE 21:26:16 10° NE
USA 229 3.6 21:12:40 10° SSW 21:19:27 76° ESE 21:26:22 10° NE
Cosmos 2322 3.7 21:16:05 10° SSW 21:21:47 83° ESE 21:27:31 10° NNE
SL-16 R/B 4.3 21:21:22 10° WSW 21:26:19 30° WNW 21:31:17 10° N
Cosmos 1703 Rocket 3.8 21:22:36 13° SSE 21:26:22 50° E 21:30:39 10° NNE
USA 186 3.2 21:26:05 10° SSW 21:28:39 32° W 21:31:23 10° NNW
NOSS 3-1 (A) 4.2 21:28:56 23° SE 21:30:04 24° ESE 21:34:52 10° ENE
Lacrosse 4 Rocket 3.8 21:28:37 10° WNW 21:31:56 21° WSW 21:35:16 10° SSW
Helios 1B rocket 2.9 21:29:18 10° N 21:33:21 62° WNW 21:37:23 10° SSW
Meteor 1-14 Rocket 4.5 21:28:06 10° N 21:33:40 53° ENE 21:37:04 24° SE
YAOGAN 6 3.0 21:34:54 36° ESE 21:35:50 45° ENE 21:39:17 10° N
Cosmos 2237 Rocket 3.8 21:42:54 17° ENE 21:42:54 17° ENE 21:45:07 10° ENE
Cosmos 1777 Rocket 4.4 21:38:44 10° N 21:43:47 45° ENE 21:45:38 32° ESE
Cosmos 2333 4.2 21:38:31 10° S 21:44:05 58° ESE 21:49:45 10° NNE
Cosmos 1844 Rocket 3.4 21:39:13 10° N 21:44:21 36° ENE 21:46:15 28° E
Cosmos 2333 Rocket 3.0 21:46:23 30° ESE 21:46:42 30° ESE 21:51:39 10° NE
Cosmos 2266 Rocket 4.0 21:41:19 10° N 21:47:39 72° E 21:51:42 24° SSE
Cosmos 2278 Rocket 3.9 21:44:21 10° NNE 21:48:00 17° NE 21:49:35 15° ENE
Meteor 2-10 Rocket 4.2 21:43:47 10° SSW 21:49:33 65° W 21:55:18 10° N
Cosmos 2221 Rocket 3.4 21:53:09 29° S 21:55:24 81° E 21:59:51 10° N
Cosmos 2219 Rocket 2.2 22:01:53 34° SSE 22:04:02 54° ESE 22:09:31 10° NNE
Cosmos 968 Rocket 4.2 22:01:54 10° NNW 22:06:56 50° WSW 22:09:48 24° SSW
H-2A R/B 4.2 22:10:39 15° NE 22:10:39 15° NE 22:12:25 10° NNE
USA 234 3.2 22:14:54 41° ESE 22:17:25 75° NE 22:23:57 10° NW
Cosmos 1553 Rocket 4.3 22:21:37 43° E 22:21:54 43° E 22:27:43 10° NNE
Cosmos 1782 2.9 22:24:25 72° N 22:24:25 72° N 22:28:04 10° N
Cosmos 2263 Rocket 4.4 22:23:04 10° WNW 22:26:44 18° W 22:30:26 10° SW
SL-08 RB Rocket 3.9 22:33:13 62° NE 22:33:13 62° NE 22:37:18 10° N
Okean 1-7 4.4 22:33:16 24° SW 22:35:21 38° WNW 22:39:28 10° N
H-2A R/B 2.3 22:37:56 52° NE 22:37:56 52° NE 22:42:17 10° N
MetOp-B 4.3 22:38:14 54° SSW 22:39:15 66° WSW 22:44:36 10° NNW
Meteor 1-27 Rocket 3.8 22:39:55 59° ENE 22:39:55 59° ENE 22:45:01 10° NNE
SeaSat 1 2.8 22:41:46 52° NE 22:41:46 52° NE 22:46:17 10° NNW
CZ-4C R/B 3.3 22:35:41 10° NNW 22:42:38 49° NE 22:44:27 42° E
ERS-1 Rocket 4.1 22:42:00 30° SW 22:43:30 37° W 22:48:09 10° NNW
USA 245 4.1 22:43:25 70° SSW 22:43:55 76° WSW 22:48:45 10° NNW
SPOT 5 3.0 22:48:33 64° W 22:48:33 64° W 22:53:00 10° NNW
Cosmos 1570 Rocket 4.3 22:47:23 49° SW 22:48:38 65° WNW 22:53:54 10° NNE
Okean 2 Rocket 4.2 22:47:20 10° NNW 22:51:30 38° W 22:51:48 37° W
COSMOS 2428 4.3 22:46:32 10° SW 22:51:39 34° WNW 22:56:48 10° N
S3M 3.8 22:53:35 75° ESE 22:53:39 75° E 22:59:51 10° N
ATLAS 5 CENTAUR R/B 4.4 22:52:30 10° WNW 22:56:55 20° WSW 22:59:23 16° SW
Cosmos 1980 3.6 22:58:04 83° NW 22:58:04 83° NW 23:03:40 10° NNE
Atlas Centaur 2 3.3 22:52:57 10° W 22:58:46 42° SSW 22:58:46 42° SSW
ARGOS 3.5 23:00:07 54° WSW 23:00:25 54° W 23:05:42 10° NNW
NOSS 3-1 (C) 4.3 22:57:40 10° SW 23:03:11 47° NW 23:09:21 10° NNE
Cosmos 1844 3.9 22:57:39 10° NNW 23:03:07 63° WSW 23:03:07 63° WSW
SL-16 R/B 3.9 23:07:51 22° NE 23:07:51 22° NE 23:10:00 10° NE
ASTEX 1 4.0 23:08:04 51° N 23:08:04 51° N 23:11:49 10° N
MOS 1-B Rocket 4.3 23:06:16 51° SW 23:06:54 53° W 23:12:23 10° NNW
Meteor 1-11 Rocket 3.8 23:03:56 10° N 23:08:50 71° N 23:08:50 71° N
NOSS 3-1 (A) 4.2 23:16:00 16° WSW 23:20:26 48° NW 23:26:39 10° NNE
ATLAS 2AS CENTAUR R/B 3.9 23:23:56 35° ENE 23:23:56 35° ENE 23:28:49 10° NE
Cosmos 1898 Rocket 4.3 23:16:45 10° NNW 23:20:28 47° N 23:20:28 47° N
Cosmos 2237 Rocket 2.7 23:24:38 54° WNW 23:24:50 54° WNW 23:30:26 10° NNE
Terra 3.1 23:28:13 39° NNW 23:28:13 39° NNW 23:31:12 10° NNW
Cosmos 1844 Rocket 4.1 23:23:24 10° NW 23:27:55 28° W 23:27:55 28° W
Cosmos 1745 Rocket 4.1 23:22:24 10° N 23:28:24 73° WNW 23:28:24 73° WNW
Cosmos 2333 Rocket 3.6 23:28:13 24° WSW 23:30:48 35° WNW 23:36:06 10° N
Cosmos 2278 Rocket 2.8 23:26:58 10° NNW 23:31:26 53° NW 23:31:26 53° NW
H-2A R/B 4.3 23:47:46 23° NW 23:47:46 23° NW 23:49:38 10° NNW
Cosmos 2219 Rocket 4.4 23:44:15 10° WSW 23:48:19 20° NW 23:52:28 10° N
ATLAS 3B R/B 3.9 23:42:57 10° NNW 23:48:44 29° NE 23:49:10 28° NE
